| time (UTC) | temp C | wind direction | speed KPH | gust KPH | rain 1hr cm | rain 24hr cm | rain mn cm | humidity % | barometer mb |
| 20260503200301 | 26 | 145 | 14.5 | 29.0 | 0.00 | 0.08 | 0.00 | 29 | 1011.3 |
| 20260503195301 | 25 | 167 | 14.5 | 27.4 | 0.00 | 0.08 | 0.00 | 27 | 1011.3 |
| 20260503194802 | 25 | 280 | 14.5 | 20.9 | 0.00 | 0.08 | 0.00 | 27 | 1012.0 |
| 20260503194302 | 25 | 219 | 16.1 | 19.3 | 0.00 | 0.08 | 0.00 | 28 | 1012.0 |
| 20260503193802 | 24 | 145 | 16.1 | 24.1 | 0.00 | 0.08 | 0.00 | 29 | 1012.0 |
| 20260503193302 | 24 | 168 | 16.1 | 32.2 | 0.00 | 0.08 | 0.00 | 28 | 1012.0 |
| 20260503192801 | 24 | 190 | 14.5 | 22.5 | 0.00 | 0.08 | 0.00 | 29 | 1012.6 |
| 20260503192305 | 21 | 145 | 11.3 | 4.8 | 0.00 | 0.08 | 0.00 | 39 | 1015.4 |
| 20260503175302 | 20 | 167 | 12.9 | 22.5 | 0.00 | 0.08 | 0.00 | 38 | 1015.4 |
| 20260503174801 | 20 | 167 | 14.5 | 22.5 | 0.00 | 0.08 | 0.00 | 38 | 1016.1 |
| 20260503174301 | 19 | 205 | 16.1 | 32.2 | 0.00 | 0.08 | 0.00 | 38 | 1016.1 |
| 20260503173801 | 19 | 145 | 17.7 | 32.2 | 0.00 | 0.08 | 0.00 | 39 | 1016.1 |
| 20260503173302 | 18 | 145 | 16.1 | 24.1 | 0.00 | 0.08 | 0.00 | 39 | 1016.1 |
| 20260503172802 | 18 | 123 | 12.9 | 49.9 | 0.00 | 0.08 | 0.00 | 39 | 1016.4 |
| 20260503171802 | 18 | 145 | 14.5 | 27.4 | 0.00 | 0.08 | 0.00 | 40 | 1016.3 |
| 20260503171303 | 18 | 239 | 12.9 | 29.0 | 0.00 | 0.08 | 0.00 | 41 | 1016.3 |
| 20260503170803 | 18 | 167 | 14.5 | 29.0 | 0.00 | 0.08 | 0.00 | 41 | 1016.1 |
| 20260503170303 | 18 | 140 | 14.5 | 27.4 | 0.00 | 0.08 | 0.00 | 41 | 1016.1 |
| 20260503150802 | 14 | 145 | 9.7 | 20.9 | 0.00 | 0.08 | 0.00 | 55 | 1018.1 |
| 20260503150302 | 14 | 185 | 9.7 | 12.9 | 0.00 | 0.08 | 0.00 | 56 | 1018.1 |
| 20260503131302 | 10 | 135 | 9.7 | 16.1 | 0.00 | 0.08 | 0.00 | 66 | 1019.4 |
| 20260503130802 | 10 | 145 | 4.8 | 16.1 | 0.00 | 0.08 | 0.00 | 67 | 1019.5 |
| 20260503130302 | 10 | 154 | 6.4 | 12.9 | 0.00 | 0.08 | 0.00 | 68 | 1019.5 |
| 20260503080802 | 8 | 213 | 0.0 | 0.0 | 0.00 | 0.08 | 0.00 | 76 | 1019.5 |
| 20260503080302 | 8 | 257 | 0.0 | 0.0 | 0.00 | 0.08 | 0.00 | 76 | 1019.5 |
| 20260503072803 | 8 | 190 | 0.0 | 0.0 | 0.00 | 0.08 | 0.00 | 75 | 1020.0 |
| 20260503071802 | 8 | 347 | 0.0 | 0.0 | 0.00 | 0.08 | 0.00 | 74 | 1020.0 |
| 20260503071302 | 8 | 151 | 0.0 | 0.0 | 0.00 | 0.08 | 0.00 | 73 | 1020.0 |
| 20260503070302 | 8 | 251 | 0.0 | 0.0 | 0.00 | 0.08 | 0.00 | 73 | 1020.0 |
| 20260503060303 | 8 | 145 | 0.0 | 0.0 | 0.00 | 0.08 | 0.00 | 70 | 1020.3 |
| 20260503054802 | 8 | 145 | 0.0 | 0.0 | 0.00 | 0.08 | 0.00 | 69 | 1020.1 |
| 20260503054302 | 8 | 145 | 0.0 | 0.0 | 0.00 | 0.08 | 0.00 | 69 | 1020.1 |
| 20260503053802 | 8 | 145 | 0.0 | 0.0 | 0.00 | 0.08 | 0.00 | 68 | 1020.1 |
| 20260503053303 | 8 | 145 | 0.0 | 0.0 | 0.00 | 0.08 | 0.00 | 68 | 1020.1 |
| 20260503052803 | 8 | 145 | 0.0 | 0.0 | 0.00 | 0.08 | 0.00 | 68 | 1020.3 |
| 20260503051803 | 8 | 145 | 0.0 | 0.0 | 0.00 | 0.08 | 0.00 | 67 | 1020.3 |
| 20260503051302 | 8 | 145 | 0.0 | 0.0 | 0.00 | 0.08 | 0.00 | 67 | 1020.3 |
| 20260503050819 | 8 | 145 | 0.0 | 0.0 | 0.00 | 0.08 | 0.00 | 66 | 1020.2 |
| 20260503050303 | 8 | 145 | 0.0 | 0.0 | 0.00 | 0.08 | 0.00 | 66 | 1020.2 |
| 20260503045802 | 8 | 145 | 0.0 | 0.0 | 0.00 | 0.08 | 0.08 | 65 | 1020.2 |
| 20260503045304 | 8 | 145 | 0.0 | 0.0 | 0.00 | 0.08 | 0.08 | 65 | 1020.2 |
| 20260503044802 | 9 | 145 | 0.0 | 0.0 | 0.00 | 0.08 | 0.08 | 65 | 1020.3 |
| 20260503043802 | 9 | 167 | 0.0 | 0.0 | 0.00 | 0.08 | 0.08 | 64 | 1020.3 |
| 20260503042803 | 9 | 167 | 0.0 | 0.0 | 0.00 | 0.08 | 0.08 | 64 | 1019.6 |
| 20260503042304 | 9 | 167 | 0.0 | 0.0 | 0.00 | 0.08 | 0.08 | 64 | 1019.6 |
| 20260503041302 | 9 | 167 | 0.0 | 0.0 | 0.00 | 0.08 | 0.08 | 63 | 1019.6 |
| 20260503040802 | 10 | 167 | 0.0 | 0.0 | 0.00 | 0.08 | 0.08 | 62 | 1019.9 |
| 20260503040302 | 10 | 167 | 0.0 | 0.0 | 0.00 | 0.08 | 0.08 | 62 | 1019.9 |
| 20260503035802 | 10 | 167 | 0.0 | 0.0 | 0.00 | 0.08 | 0.08 | 61 | 1019.9 |
| 20260503034803 | 10 | 167 | 0.0 | 0.0 | 0.00 | 0.08 | 0.08 | 60 | 1019.9 |
| 20260503034302 | 10 | 167 | 0.0 | 0.0 | 0.00 | 0.08 | 0.08 | 60 | 1019.9 |
| 20260503033302 | 10 | 167 | 0.0 | 0.0 | 0.00 | 0.08 | 0.08 | 59 | 1019.9 |
| 20260503032304 | 10 | 173 | 0.0 | 0.0 | 0.00 | 0.08 | 0.08 | 59 | 1020.1 |
| 20260503031802 | 10 | 145 | 0.0 | 0.0 | 0.00 | 0.08 | 0.08 | 57 | 1020.1 |
| 20260503031302 | 10 | 145 | 0.0 | 0.0 | 0.00 | 0.08 | 0.08 | 57 | 1020.1 |
| 20260503030803 | 11 | 145 | 0.0 | 0.0 | 0.00 | 0.08 | 0.08 | 55 | 1019.9 |
| 20260503030302 | 11 | 145 | 0.0 | 0.0 | 0.00 | 0.08 | 0.08 | 55 | 1019.9 |
| 20260503025802 | 11 | 145 | 0.0 | 0.0 | 0.00 | 0.08 | 0.08 | 55 | 1019.9 |
| 20260503025305 | 11 | 145 | 0.0 | 0.0 | 0.00 | 0.08 | 0.08 | 55 | 1019.9 |
| 20260503023803 | 11 | 145 | 0.0 | 0.0 | 0.00 | 0.08 | 0.08 | 53 | 1019.7 |
| 20260503023302 | 11 | 145 | 0.0 | 0.0 | 0.00 | 0.08 | 0.08 | 52 | 1019.7 |
| 20260503022343 | 11 | 145 | 0.0 | 0.0 | 0.00 | 0.08 | 0.08 | 51 | 1019.5 |
| 20260503021802 | 12 | 145 | 0.0 | 0.0 | 0.00 | 0.08 | 0.08 | 50 | 1019.5 |
| 20260503020802 | 12 | 145 | 0.0 | 0.0 | 0.00 | 0.08 | 0.08 | 48 | 1019.5 |
| 20260503020303 | 12 | 145 | 0.0 | 0.0 | 0.00 | 0.08 | 0.08 | 47 | 1019.5 |
| 20260503015305 | 12 | 347 | 0.0 | 0.0 | 0.00 | 0.08 | 0.08 | 44 | 1019.5 |
| 20260503014803 | 13 | 347 | 0.0 | 0.0 | 0.08 | 0.08 | 0.08 | 43 | 1019.3 |
| 20260503014303 | 13 | 347 | 0.0 | 0.0 | 0.08 | 0.08 | 0.08 | 42 | 1019.3 |
| 20260503013802 | 13 | 347 | 0.0 | 0.0 | 0.08 | 0.08 | 0.08 | 41 | 1019.3 |
| 20260503013302 | 13 | 347 | 0.0 | 0.0 | 0.08 | 0.08 | 0.08 | 41 | 1019.3 |
| 20260503012803 | 13 | 347 | 0.0 | 0.0 | 0.08 | 0.08 | 0.08 | 39 | 1018.7 |
| 20260503012305 | 13 | 347 | 0.0 | 0.0 | 0.08 | 0.08 | 0.08 | 39 | 1018.7 |
| 20260503011802 | 14 | 347 | 0.0 | 0.0 | 0.08 | 0.08 | 0.08 | 38 | 1018.7 |
| 20260503011303 | 14 | 347 | 0.0 | 0.0 | 0.08 | 0.08 | 0.08 | 37 | 1018.7 |
| 20260503010803 | 14 | 347 | 0.0 | 0.0 | 0.08 | 0.08 | 0.08 | 37 | 1018.9 |
| 20260503010302 | 15 | 335 | 0.0 | 0.0 | 0.08 | 0.08 | 0.08 | 36 | 1018.9 |
| 20260503005803 | 15 | 325 | 0.0 | 0.0 | 0.08 | 0.08 | 0.08 | 36 | 1018.9 |
| 20260503005304 | 15 | 280 | 0.0 | 0.0 | 0.08 | 0.08 | 0.08 | 36 | 1018.9 |
| 20260503004803 | 15 | 303 | 0.0 | 0.0 | 0.00 | 0.00 | 0.00 | 36 | 1018.9 |
| 20260503004303 | 16 | 28 | 0.0 | 0.0 | 0.00 | 0.00 | 0.00 | 37 | 1018.9 |
| 20260503003803 | 15 | 303 | 0.0 | 0.0 | 0.00 | 0.00 | 0.00 | 37 | 1018.9 |
| 20260503003303 | 15 | 333 | 1.6 | 0.0 | 0.00 | 0.00 | 0.00 | 36 | 1018.9 |
| 20260503002305 | 15 | 16 | 1.6 | 3.2 | 0.00 | 0.00 | 0.00 | 36 | 1018.8 |
| 20260503001802 | 15 | 213 | 1.6 | 8.0 | 0.00 | 0.00 | 0.00 | 36 | 1018.8 |
| 20260503001302 | 15 | 8 | 3.2 | 8.0 | 0.00 | 0.00 | 0.00 | 36 | 1018.8 |
| 20260503000802 | 16 | 347 | 3.2 | 4.8 | 0.00 | 0.00 | 0.00 | 36 | 1018.8 |
| 20260503000303 | 16 | 207 | 3.2 | 4.8 | 0.00 | 0.00 | 0.00 | 36 | 1018.8 |
| 20260502235803 | 16 | 347 | 3.2 | 11.3 | 0.00 | 0.00 | 0.00 | 36 | 1018.8 |
| 20260502235304 | 16 | 357 | 4.8 | 11.3 | 0.00 | 0.00 | 0.00 | 35 | 1018.8 |
| 20260502234803 | 16 | 347 | 4.8 | 8.0 | 0.00 | 0.00 | 0.00 | 35 | 1019.0 |
| 20260502234302 | 16 | 163 | 4.8 | 9.7 | 0.00 | 0.00 | 0.00 | 35 | 1019.0 |
| 20260502233802 | 16 | 235 | 4.8 | 22.5 | 0.00 | 0.00 | 0.00 | 34 | 1019.0 |
| 20260502233303 | 16 | 6 | 3.2 | 8.0 | 0.00 | 0.00 | 0.00 | 34 | 1019.0 |
| 20260502231803 | 17 | 303 | 4.8 | 3.2 | 0.00 | 0.00 | 0.00 | 32 | 1019.3 |
| 20260502231303 | 18 | 280 | 3.2 | 9.7 | 0.00 | 0.00 | 0.00 | 31 | 1019.3 |
| 20260502230303 | 20 | 278 | 3.2 | 9.7 | 0.00 | 0.00 | 0.00 | 32 | 1019.1 |
| 20260502225802 | 20 | 347 | 3.2 | 9.7 | 0.00 | 0.00 | 0.00 | 31 | 1019.1 |
| 20260502225304 | 20 | 167 | 3.2 | 4.8 | 0.00 | 0.00 | 0.00 | 32 | 1019.1 |
| 20260502224802 | 20 | 190 | 3.2 | 9.7 | 0.00 | 0.00 | 0.00 | 32 | 1019.2 |
| 20260502224303 | 20 | 146 | 3.2 | 8.0 | 0.00 | 0.00 | 0.00 | 33 | 1019.2 |
| 20260502223802 | 19 | 213 | 1.6 | 11.3 | 0.00 | 0.00 | 0.00 | 32 | 1019.2 |
| 20260502222804 | 19 | 167 | 1.6 | 8.0 | 0.00 | 0.00 | 0.00 | 34 | 1019.8 |
| 20260502222305 | 19 | 279 | 3.2 | 8.0 | 0.00 | 0.00 | 0.00 | 34 | 1019.8 |
| 20260502221805 | 18 | 303 | 4.8 | 8.0 | 0.00 | 0.00 | 0.00 | 35 | 1019.8 |
| 20260502221303 | 17 | 285 | 3.2 | 8.0 | 0.00 | 0.00 | 0.00 | 36 | 1019.8 |
| 20260502220303 | 18 | 212 | 8.0 | 19.3 | 0.00 | 0.00 | 0.00 | 35 | 1019.0 |
| 20260502215803 | 18 | 347 | 8.0 | 19.3 | 0.00 | 0.00 | 0.00 | 32 | 1019.0 |
| 20260502214803 | 19 | 167 | 3.2 | 4.8 | 0.00 | 0.00 | 0.00 | 36 | 1020.0 |
| 20260502214303 | 19 | 34 | 3.2 | 4.8 | 0.00 | 0.00 | 0.00 | 37 | 1020.0 |
| 20260502213803 | 17 | 235 | 4.8 | 11.3 | 0.00 | 0.00 | 0.00 | 37 | 1020.0 |
| 20260502213302 | 17 | 335 | 3.2 | 12.9 | 0.00 | 0.00 | 0.00 | 38 | 1020.0 |
| 20260502212305 | 17 | 83 | 3.2 | 8.0 | 0.00 | 0.00 | 0.00 | 39 | 1019.3 |
| 20260502211803 | 16 | 167 | 4.8 | 9.7 | 0.00 | 0.00 | 0.00 | 38 | 1019.3 |
| 20260502211302 | 17 | 11 | 3.2 | 11.3 | 0.00 | 0.00 | 0.00 | 38 | 1019.3 |
| 20260502210803 | 19 | 280 | 3.2 | 11.3 | 0.00 | 0.00 | 0.00 | 39 | 1019.9 |
| 20260502210303 | 18 | 357 | 4.8 | 8.0 | 0.00 | 0.00 | 0.00 | 39 | 1019.9 |
| 20260502205802 | 17 | 347 | 4.8 | 12.9 | 0.00 | 0.00 | 0.00 | 38 | 1019.9 |
| 20260502204302 | 17 | 207 | 6.4 | 12.9 | 0.00 | 0.00 | 0.00 | 36 | 1019.9 |
| 20260502203802 | 17 | 77 | 6.4 | 12.9 | 0.00 | 0.00 | 0.00 | 36 | 1019.9 |
| 20260502203303 | 18 | 0 | 4.8 | 16.1 | 0.00 | 0.00 | 0.00 | 35 | 1019.9 |
| 20260502202803 | 17 | 10 | 3.2 | 8.0 | 0.00 | 0.00 | 0.00 | 36 | 1020.0 |
| 20260502202304 | 17 | 278 | 4.8 | 11.3 | 0.00 | 0.00 | 0.00 | 36 | 1020.0 |
| 20260502201803 | 19 | 123 | 3.2 | 8.0 | 0.00 | 0.00 | 0.00 | 36 | 1020.0 |
| 20260502201303 | 20 | 211 | 3.2 | 8.0 | 0.00 | 0.00 | 0.00 | 38 | 1020.0 |
| 20260502200803 | 20 | 145 | 3.2 | 9.7 | 0.00 | 0.00 | 0.00 | 38 | 1020.3 |